Powrót do katalogu

LILIUM-2

AktywnyKrótkofalarstwoSSO
NORAD 66679·PAYLOAD·🇹🇼 Taiwan

Wystrzelony Nov 28, 2025 z Vandenberg Space Force Base

Loading…

Następne Przeloty (najbliższe 24 godziny)

TLE

ŚwieżeSource: Space-Track

Epoka: Sep 14, 2026, 03:41 UTC

1 66679U 25276P   26257.15382984  .00002332  00000-0  11675-3 0  9991
2 66679  97.4077 328.3989 0007392  64.3858 295.8139 15.18350302 43896

Śledź LILIUM-2 w czasie rzeczywistym z AllMySat

Download on the App Store